Location: Caltech
(34.1382°N, 118.1253°W)
Time: 14:55:44
(UTC-07:00)

Uribyol 2 - Visible Passes

Search period start: 07 July 2015 00:00
Search period end: 17 July 2015 00:00
Orbit: 783 x 796 km, 98.7° (Epoch: 07 July)

Date Brightness Start Highest point End Pass type
(mag) Time Alt. Az. Time Alt. Az. Time Alt. Az.
07 Jul ? 03:26:07 10° N 03:31:20 83° WNW 03:32:37 52° SSW visible
08 Jul ? 02:56:44 10° NNE 03:01:45 49° E 03:02:40 44° SE visible
08 Jul ? 04:37:30 10° NNW 04:40:53 17° WNW 04:43:24 12° W visible
09 Jul ? 02:27:53 10° NE 02:32:02 25° E 02:32:43 24° ESE visible
09 Jul ? 04:06:57 10° N 04:11:33 32° WNW 04:13:27 25° WSW visible
10 Jul ? 02:00:24 10° ENE 02:02:07 12° E 02:02:46 12° E visible
10 Jul ? 03:37:00 10° N 03:42:08 64° WNW 03:43:29 46° SW visible
11 Jul ? 03:07:28 10° NNE 03:12:37 64° E 03:13:32 54° SSE visible
11 Jul ? 04:49:03 10° NW 04:51:37 13° WNW 04:53:54 10° W visible
12 Jul ? 02:38:24 10° NE 02:42:57 31° E 02:43:35 31° ESE visible
12 Jul ? 04:18:04 10° NNW 04:22:20 26° WNW 04:24:18 20° WSW visible
13 Jul ? 02:10:10 10° ENE 02:13:07 16° E 02:13:38 16° E visible
13 Jul ? 03:47:56 10° N 03:52:57 50° WNW 03:54:20 39° WSW visible
14 Jul ? 03:18:15 10° NNE 03:23:28 82° ESE 03:24:23 61° S visible
14 Jul ? 05:01:27 10° NW 05:02:20 10° WNW 05:02:53 10° WNW visible
15 Jul ? 02:49:00 10° NNE 02:53:51 40° E 02:54:25 39° ESE visible
15 Jul ? 04:29:16 10° NNW 04:33:05 20° WNW 04:35:08 16° W visible
16 Jul ? 02:20:23 10° NE 02:24:04 20° E 02:24:28 20° E visible
16 Jul ? 03:58:55 10° N 04:03:44 39° WNW 04:05:11 32° WSW visible
